CW0925 Weather Reports


Display with metric or nautical units.
time (UTC)temp
F
wind
direction
speed
MPH
gust
MPH
rain 1hr
in
rain 24hr
in
rain mn
in
humidity
%
barometer
mb
20260506043328 78 113 2.0 5.0 0.00 0.00 0.00 85 1018.1
20260506042328 78 176 3.0 5.0 0.00 0.00 0.00 85 1018.1
20260506041324 79 99 3.0 4.0 0.00 0.00 0.00 84 1018.2
20260506040350 78 123 1.0 4.0 0.00 0.00 0.00 83 1018.0
20260506035332 79 155 2.0 4.0 0.00 0.00 0.00 84 1018.1
20260506034351 79 173 3.0 8.0 0.00 0.00 0.00 83 1018.2
20260506033346 80 170 0.0 3.0 0.00 0.00 0.00 82 1018.0
20260506032341 81 57 2.0 4.0 0.00 0.00 0.00 82 1017.7
20260506031316 81 55 2.0 6.0 0.00 0.00 0.00 81 1017.7
20260506030347 81 26 2.0 5.0 0.00 0.00 0.00 80 1017.5
20260506025329 80 23 2.0 4.0 0.00 0.00 0.00 80 1017.4
20260506024325 81 59 3.0 5.0 0.00 0.00 0.00 80 1017.3
20260506023323 80 22 3.0 5.0 0.00 0.00 0.00 81 1017.2
20260506022321 81 24 2.0 5.0 0.00 0.00 0.00 81 1017.1
20260506021335 80 8 1.0 5.0 0.00 0.00 0.00 80 1017.1
20260506020342 80 22 0.0 5.0 0.00 0.00 0.00 82 1016.9
20260506015328 80 19 0.0 3.0 0.00 0.00 0.00 83 1016.9
20260506014321 80 5 0.0 1.0 0.00 0.00 0.00 81 1016.8
20260506013318 80 64 0.0 3.0 0.00 0.00 0.00 81 1016.6
20260506012319 80 63 1.0 3.0 0.00 0.00 0.00 83 1016.6
20260506011334 80 72 0.0 1.0 0.00 0.00 0.00 84 1016.6
20260506010341 80 68 0.0 2.0 0.00 0.00 0.00 84 1016.6
20260506005344 80 118 0.0 2.0 0.00 0.00 0.00 83 1016.5
20260506004322 80 105 0.0 1.0 0.00 0.00 0.00 83 1016.4
20260506003317 80 132 0.0 2.0 0.00 0.00 0.00 83 1016.3
20260506002335 81 118 2.0 3.0 0.00 0.00 0.00 82 1016.3
20260506001334 81 123 0.0 3.0 0.00 0.00 0.00 81 1016.2
20260506000340 81 120 2.0 4.0 0.00 0.00 0.00 81 1016.2
20260505235342 81 84 2.0 5.0 0.00 0.00 0.00 79 1016.0
20260505234356 82 92 4.0 8.0 0.00 0.00 0.00 77 1015.9
20260505233334 82 84 2.0 5.0 0.00 0.00 0.00 77 1015.8
20260505232351 83 102 1.0 6.0 0.00 0.00 0.00 77 1015.8
20260505231324 83 151 3.0 8.0 0.00 0.00 0.00 76 1015.8
20260505230332 84 105 3.0 8.0 0.00 0.00 0.00 75 1015.8
20260505225317 84 118 4.0 10.0 0.00 0.00 0.00 76 1015.9
20260505224332 84 80 3.0 10.0 0.00 0.00 0.00 76 1015.9
20260505223327 84 111 4.0 9.0 0.00 0.00 0.00 76 1015.9
20260505222328 85 129 5.0 11.0 0.00 0.00 0.00 77 1015.8
20260505221325 85 84 5.0 12.0 0.00 0.00 0.00 75 1015.8
20260505220331 86 77 5.0 10.0 0.00 0.00 0.00 74 1015.6
20260505215353 87 11 0.0 3.0 0.00 0.00 0.00 77 1015.7
20260505214332 86 18 0.0 1.0 0.00 0.00 0.00 79 1015.6
20260505213327 85 254 0.0 4.0 0.00 0.00 0.00 82 1015.6
20260505212344 84 267 3.0 6.0 0.00 0.00 0.00 81 1015.6
20260505211318 84 261 1.0 6.0 0.00 0.00 0.00 81 1015.6
20260505210348 84 246 1.0 4.0 0.00 0.00 0.00 80 1015.8
20260505205330 84 312 0.0 4.0 0.00 0.00 0.00 82 1015.8
20260505204325 84 284 0.0 4.0 0.00 0.00 0.00 83 1015.9
20260505203324 83 267 3.0 7.0 0.00 0.00 0.00 82 1015.9
20260505202321 84 254 0.0 6.0 0.00 0.00 0.00 82 1015.9
20260505201317 84 228 0.0 5.0 0.00 0.00 0.00 76 1015.9
20260505200344 84 252 2.0 4.0 0.00 0.00 0.00 76 1016.0
20260505195330 84 74 1.0 4.0 0.00 0.00 0.00 78 1016.0
20260505194327 84 151 0.0 4.0 0.00 0.00 0.00 79 1016.2